Le nostre stazioni meteo in Italia

Pubblicità
Il mio iltempo24.it
Frosinone, Italia (16244): Temperatura & dewpoint: 01.12.2019 10:00:00 - 07.12.2019 10:00:00 (CET)Frosinone, Italia (16244): velocità del vento: 01.12.2019 10:00:00 - 07.12.2019 10:00:00 (CET)Frosinone, Italia (16244): direzione del vento: 01.12.2019 10:00:00 - 07.12.2019 10:00:00 (CET)Frosinone, Italia (16244): reduced air pressure: 01.12.2019 10:00:00 - 07.12.2019 10:00:00 (CET)Frosinone, Italia (16244): visibility: 01.12.2019 10:00:00 - 07.12.2019 10:00:00 (CET)
Data & Tempo tt [°C] td [°C] ff [km/h] ff [kn] dd ppp [hPa] vv [km]
07.12.2019 10:00:00 - - - - - - -
07.12.2019 09:00:00 - - - - - - -
07.12.2019 08:00:00 - - - - - - -
07.12.2019 07:00:00 - - - - - - -
07.12.2019 06:00:00 - - - - - - -
07.12.2019 05:00:00 - - - - - - -
07.12.2019 04:00:00 - - - - - - -
07.12.2019 03:00:00 - - - - - - -
07.12.2019 02:00:00 - - - - - - -
07.12.2019 01:00:00 - - - - - - -
07.12.2019 00:00:00 - - - - - - -
06.12.2019 23:00:00 - - - - - - -
06.12.2019 22:00:00 - - - - - - -
06.12.2019 21:00:00 - - - - - - -
06.12.2019 20:00:00 - - - - - - -
06.12.2019 19:00:00 11,0 8,6 0 0 N 1022,4 13
06.12.2019 18:00:00 11,0 7,0 4 2 NE - 10
06.12.2019 17:00:00 13,0 8,0 0 0 N - 10
06.12.2019 16:00:00 14,0 8,6 4 2 S 1022,1 7
06.12.2019 15:00:00 14,0 8,0 0 0 N - 7
06.12.2019 14:00:00 14,0 8,0 5 3 E - 7
06.12.2019 13:00:00 13,0 6,6 4 2 E 1023,7 7
06.12.2019 12:00:00 12,0 6,0 4 2 SO - 7
06.12.2019 11:00:00 11,0 7,0 4 2 NO - 5
06.12.2019 10:00:00 10,2 7,3 4 2 S 1024,9 5
06.12.2019 09:00:00 8,0 6,0 4 2 ONO - 4,0
06.12.2019 08:00:00 6,0 5,0 4 2 SO - 3,0
06.12.2019 07:00:00 6,0 5,3 0 0 N 1024,3 6
06.12.2019 06:00:00 6,0 5,0 4 2 E - 8
06.12.2019 05:00:00 - - - - - - -
06.12.2019 04:00:00 - - - - - - -
06.12.2019 03:00:00 - - - - - - -
06.12.2019 02:00:00 - - - - - - -
06.12.2019 01:00:00 - - - - - - -
06.12.2019 00:00:00 - - - - - - -
05.12.2019 23:00:00 - - - - - - -
05.12.2019 22:00:00 - - - - - - -
05.12.2019 21:00:00 - - - - - - -
05.12.2019 20:00:00 - - - - - - -
05.12.2019 19:00:00 11,4 5,7 11 6 NNE 1023,4 13
05.12.2019 18:00:00 12,0 5,0 4 2 N - 10
05.12.2019 17:00:00 12,0 3,0 4 2 O - 10
05.12.2019 16:00:00 14,2 3,9 0 0 N 1022,2 13
05.12.2019 15:00:00 15,0 3,0 5 3 SE - 10
05.12.2019 14:00:00 14,0 2,0 9 5 SSE - 10
05.12.2019 13:00:00 13,0 1,7 8 4 ESE 1023,0 15
05.12.2019 12:00:00 12,0 4,0 11 6 SSE - 10
05.12.2019 11:00:00 11,0 4,0 5 3 E - 10
05.12.2019 10:00:00 10,2 3,5 5 3 SSE 1023,5 13
05.12.2019 09:00:00 9,0 1,0 4 2 SSE - 10
05.12.2019 08:00:00 7,0 1,0 4 2 ENE - 10
05.12.2019 07:00:00 7,0 1,5 4 2 NNO 1021,5 11
05.12.2019 06:00:00 6,0 3,0 5 3 ESE - 7
05.12.2019 05:00:00 - - - - - - -
05.12.2019 04:00:00 - - - - - - -
05.12.2019 03:00:00 - - - - - - -
05.12.2019 02:00:00 - - - - - - -
05.12.2019 01:00:00 - - - - - - -
05.12.2019 00:00:00 - - - - - - -
04.12.2019 23:00:00 - - - - - - -
04.12.2019 22:00:00 - - - - - - -
04.12.2019 21:00:00 - - - - - - -
04.12.2019 20:00:00 - - - - - - -
04.12.2019 19:00:00 8,8 2,6 9 5 NNE 1018,7 13
04.12.2019 18:00:00 - - - - - - -
04.12.2019 17:00:00 - - - - - - -
04.12.2019 16:00:00 11,4 0,8 8 4 ESE 1017,5 15
04.12.2019 15:00:00 13,0 2,0 9 5 ESE - 10
04.12.2019 14:00:00 14,0 2,0 11 6 SE - 10
04.12.2019 13:00:00 13,0 0,7 11 6 E 1018,2 12
04.12.2019 12:00:00 12,0 2,0 5 3 E - 10
04.12.2019 11:00:00 11,0 3,0 4 2 S - 10
04.12.2019 10:00:00 9,2 7,5 5 3 E 1020,5 10
04.12.2019 09:00:00 6,0 5,0 8 4 NE - 10
04.12.2019 08:00:00 5,0 3,0 9 5 NE - 10
04.12.2019 07:00:00 4,8 3,3 8 4 ENE 1020,0 13
04.12.2019 06:00:00 6,0 3,0 8 4 NE - 10
04.12.2019 05:00:00 - - - - - - -
04.12.2019 04:00:00 - - - - - - -
04.12.2019 03:00:00 - - - - - - -
04.12.2019 02:00:00 - - - - - - -
04.12.2019 01:00:00 - - - - - - -
04.12.2019 00:00:00 - - - - - - -
03.12.2019 23:00:00 - - - - - - -
03.12.2019 22:00:00 - - - - - - -
03.12.2019 21:00:00 - - - - - - -
03.12.2019 20:00:00 - - - - - - -
03.12.2019 19:00:00 13,0 8,7 9 5 NNE 1018,1 13
03.12.2019 18:00:00 14,0 10,0 8 4 ENE - 10
03.12.2019 17:00:00 14,0 11,0 8 4 ENE - 10
03.12.2019 16:00:00 14,6 10,4 4 2 ONO 1016,9 13
03.12.2019 15:00:00 15,0 11,0 0 0 N - 10
03.12.2019 14:00:00 15,0 10,0 4 2 SE - 10
03.12.2019 13:00:00 15,0 10,0 5 3 ESE 1017,4 12
03.12.2019 12:00:00 15,0 12,0 0 0 N - 10
03.12.2019 11:00:00 14,0 11,0 4 2 SSE - 10
03.12.2019 10:00:00 13,6 11,3 4 2 SSE 1017,9 7
03.12.2019 09:00:00 13,0 11,0 5 3 SE - 4,0
03.12.2019 08:00:00 13,0 12,0 5 3 ESE - 4,0
03.12.2019 07:00:00 12,4 11,3 5 3 ESE 1017,2 3,0
03.12.2019 06:00:00 13,0 12,0 4 2 E - 3,0
03.12.2019 05:00:00 - - - - - - -
03.12.2019 04:00:00 - - - - - - -
03.12.2019 03:00:00 - - - - - - -
03.12.2019 02:00:00 - - - - - - -
03.12.2019 01:00:00 - - - - - - -
03.12.2019 00:00:00 - - - - - - -
02.12.2019 23:00:00 - - - - - - -
02.12.2019 22:00:00 - - - - - - -
02.12.2019 21:00:00 - - - - - - -
02.12.2019 20:00:00 - - - - - - -
02.12.2019 19:00:00 13,8 12,9 8 4 ESE 1016,1 4,0
02.12.2019 18:00:00 14,0 12,0 4 2 NO - 3,5
02.12.2019 17:00:00 14,0 12,0 8 4 NNE - 4,0
02.12.2019 16:00:00 15,0 11,6 9 5 S 1016,1 5
02.12.2019 15:00:00 16,0 11,0 11 6 ESE - 8
02.12.2019 14:00:00 16,0 12,0 4 2 SSE - 8
02.12.2019 13:00:00 16,6 11,7 11 6 S 1017,2 8
02.12.2019 12:00:00 17,0 12,0 5 3 SE - 7
02.12.2019 11:00:00 13,0 11,0 8 4 SSE - 7
02.12.2019 10:00:00 12,0 9,9 4 2 SE 1019,0 6
02.12.2019 09:00:00 11,0 10,0 5 3 ESE - 6
02.12.2019 08:00:00 11,0 10,0 4 2 NE - 3,0
02.12.2019 07:00:00 10,8 10,0 4 2 S 1018,3 3,0
02.12.2019 06:00:00 11,0 10,0 5 3 N - 3,0
02.12.2019 05:00:00 - - - - - - -
02.12.2019 04:00:00 - - - - - - -
02.12.2019 03:00:00 - - - - - - -
02.12.2019 02:00:00 - - - - - - -
02.12.2019 01:00:00 - - - - - - -
02.12.2019 00:00:00 - - - - - - -
01.12.2019 23:00:00 - - - - - - -
01.12.2019 22:00:00 - - - - - - -
01.12.2019 21:00:00 - - - - - - -
01.12.2019 20:00:00 - - - - - - -
01.12.2019 19:00:00 - - - - - - -
01.12.2019 18:00:00 - - - - - - -
01.12.2019 17:00:00 - - - - - - -
01.12.2019 16:00:00 - - - - - - -
01.12.2019 15:00:00 - - - - - - -
01.12.2019 14:00:00 - - - - - - -
01.12.2019 13:00:00 - - - - - - -
01.12.2019 12:00:00 - - - - - - -
01.12.2019 11:00:00 - - - - - - -
01.12.2019 10:00:00 - - - - - - -

tt = Temperatura
td = dewpoint
ff = velocità del vento
dd = direzione del vento
ppp = reduced air pressure
vv = visibility

Stazioni seguenti

WeatherPro
AMSI
MeteoEarth